Preview of NWS' New Version of Forecast
This preview is not operational and should not be used for support decisions.

Regional Weather Roundup (RWR)

Issued by National Weather Service (NWS)

                            
000
ASUS46 KPQR 180810
RWROR 

OREGON REGIONAL WEATHER ROUNDUP
NATIONAL WEATHER SERVICE PORTLAND OR
100 AM PDT TUE JUN 18 2019

NOTE: "FAIR" INDICATES FEW OR NO CLOUDS BELOW 12,000 FEET WITH
NO SIGNIFICANT WEATHER AND/OR OBSTRUCTIONS TO VISIBILITY.

ORZ001>013-180900-
NORTHWEST OREGON

  
CITY           SKY/WX    TMP DP  RH WIND       PRES   REMARKS
ASTORIA        LGT RAIN  56  54  93 W3        30.22S FOG              
TILLAMOOK      CLOUDY    57  54  88 W7        30.24R                  
NEWPORT        CLOUDY    52  52 100 CALM      30.24R FOG              
PORTLAND       CLEAR     61  54  77 NW6       30.18S                  
VANCOUVER WA   CLEAR     61  54  77 VRB3      30.17S                  
SCAPPOOSE      CLEAR     61  54  77 MISG      30.17S                  
HILLSBORO      CLEAR     59  53  80 NW6       30.17S                  
AURORA         CLEAR     61  53  75 N5        30.18S                  
MCMINNVILLE    CLEAR     59  53  80 W5        30.16S                  
SALEM          CLEAR     61  53  75 N3        30.16S                  
CORVALLIS      CLEAR     60  53  77 NW9       30.17S                  
EUGENE         CLEAR     59  52  77 N9        30.16S                  
$$

ORZ021-028-180900-
SOUTHWEST OREGON

  
CITY           SKY/WX    TMP DP  RH WIND       PRES   REMARKS
NORTH BEND     CLOUDY    55  54  96 N8        30.21S                  
BROOKINGS      CLEAR     71  53  52 NW7       30.04S                  
ROSEBURG       CLEAR     68  53  58 CALM      30.12S                  
SEXTON SUMMIT  CLEAR     59  50  72 N15G23    30.21S                  
GRANTS PASS    FAIR      70  52  52 N5        30.14R                  
MEDFORD        CLEAR     67  46  47 SW5       30.11S                  
$$

ORZ014>016-041-180900-
COLUMBIA GORGE

  
CITY           SKY/WX    TMP DP  RH WIND       PRES   REMARKS
TROUTDALE      CLEAR     61  54  77 VRB6      30.17S                  
HOOD RIVER     CLEAR     64  54  68 W6G20     30.08S                  
THE DALLES     CLEAR     68  54  60 NW17      30.02S                  
$$

ORZ029>031-041-044-049-050-061>064-502-503-505>511-180900-
EASTERN OREGON

  
CITY           SKY/WX    TMP DP  RH WIND       PRES   REMARKS
MADRAS         CLEAR     59  46  63 N5        30.14F                  
REDMOND        PTCLDY    52  39  61 S5        30.15S                  
BEND           CLEAR     55  45  67 CALM      30.16S                  
PRINEVILLE     PTCLDY    54  41  62 SW3       30.15F                  
KLAMATH FALLS  CLEAR     60  47  61 NW8       30.17S                  
LAKEVIEW       CLEAR     55  40  56 N8        30.20S                  
HERMISTON      PTCLDY    71  53  52 SW13      29.98R                  
PENDLETON      PTCLDY    69  50  50 SW12      30.02R                  
JOHN DAY       PTCLDY    62  41  46 CALM      30.13S                  
MEACHAM        MOCLDY    51  46  83 CALM      30.12S                  
LA GRANDE      MOCLDY    65  47  52 NW14      30.06F                  
BAKER CITY     PTCLDY    55  47  74 CALM      30.08S                  
BURNS          PTCLDY    52  39  61 CALM      30.14S                  
ROME             N/A     62  38  40 NW8       30.10S                  
ONTARIO        CLEAR     74  44  34 W7        29.99S                  
$$